Hauptseite
METAR-TAF:

METAR-TAF

Flughäfen :

Flugplatz Schwäbisch Hall-Hessental (Adolf Würth Airport)

Schwäbisch Hall, Deutschland

Breite: 49-07-06N, Länge: 9-47-02E, Höhe: 398 m

Beobachtung

Neuester Wetterbericht von vor 15 Minuten, um 11:20 UTC
Wind 5 kt aus unterschiedlichen Richtungen
Temperatur 27°C
Luftfeuchtigkeit 37%
Luftdruck 1021 hPa
Sichtweite 10 km oder mehr
keine Wolken unter 1500 m und keine Kumulonimbus oder Gewitterwolken

METAR: EDTY 191120Z VRB05KT CAVOK 27/11 Q1021

Zeit: 13:35 (11:35 UTC)

Prognose

Neuester Wetterbericht von vor 3 Stunden und 35 Minuten, um 08:00 UTC
Gültige Prognose vom 19 um 09 UTC bis 19 um 18 UTC
Wind 5 kt aus Südwest
Sichtweite 10 km oder mehr
keine Wolken unter 1500 m und keine Kumulonimbus oder Gewitterwolken

TAF: EDTY 190800Z 1909/1918 22005KT CAVOK

Wetterbeobachtungen und Prognosen von mehr als 4000 Flughäfen (METAR und TAF Bericht).

Die verfügbaren Stationen werden durch gelbe und rote Markierungen auf der Karte dargestellt.

Führen Sie die Maus auf sie, um den Namen der Station zu sehen.

Darauf klicken, um die Beobachtung von Wetterbeobachtungen und Prognosen zu sehen.

Um die Karte zu ändern : klicken Sie auf den grünen Tasten mit einem schwarzen Kreuz Zum Vergrößern, auf den grünen Button mit einem Gedankenstrich zu verkleinern, oder auf die grünen Pfeile für benachbarte Karten.


METAR-TAF: